ALAS71 MRTR-MRPV

Flight info

Callsign ALAS71
Flight time 0h 49m
Altitude 5500
Route PUNTA LEONA ZONA DE ENTRENAMIENTO W CERRO TURRUBARES GUACIMA
Aircraft DA40/L-SG/C

Departure

Time 2026-05-06 19:50
Airport Tambor Airport (MRTR)

Arrival

Time 2026-05-06 20:40
Airport Tobías Bolaños International Airport (MRPV)
Time Latitude Longitude Altitude Speed Heading
2026-05-06 19:31 9.74112 -85.01947 82 ft 0 kts 295°
2026-05-06 19:47 9.74116 -85.01952 88 ft 3 kts 328°
2026-05-06 19:47 9.74132 -85.01952 81 ft 5 kts 14°
2026-05-06 19:48 9.74129 -85.01926 80 ft 9 kts 125°
2026-05-06 19:48 9.74127 -85.01922 80 ft 0 kts 121°
2026-05-06 19:49 9.74104 -85.01888 76 ft 27 kts 121°
2026-05-06 19:49 9.73904 -85.01568 75 ft 74 kts 123°
2026-05-06 19:50 9.73667 -85.01102 277 ft 77 kts 115°
2026-05-06 19:50 9.73476 -85.00587 488 ft 74 kts 117°
2026-05-06 19:50 9.73275 -85.00065 626 ft 85 kts 117°
2026-05-06 19:50 9.73094 -84.99556 870 ft 79 kts 118°
2026-05-06 19:51 9.72873 -84.99025 1031 ft 82 kts 116°
2026-05-06 19:51 9.72654 -84.98469 1181 ft 86 kts 116°
2026-05-06 19:51 9.72418 -84.97920 1411 ft 85 kts 120°
2026-05-06 19:51 9.72143 -84.97377 1656 ft 87 kts 120°
2026-05-06 19:52 9.71876 -84.96797 1878 ft 92 kts 117°
2026-05-06 19:52 9.71598 -84.96205 2123 ft 94 kts 115°
2026-05-06 19:52 9.71383 -84.95598 2330 ft 94 kts 99°
2026-05-06 19:52 9.71458 -84.94915 2511 ft 98 kts 83°
2026-05-06 19:53 9.71524 -84.94213 2673 ft 100 kts 85°
2026-05-06 19:53 9.71609 -84.93536 2907 ft 95 kts 85°
2026-05-06 19:53 9.71721 -84.92909 3125 ft 92 kts 80°
2026-05-06 19:53 9.71838 -84.92257 3332 ft 89 kts 76°
2026-05-06 19:54 9.72012 -84.91632 3448 ft 99 kts 75°
2026-05-06 19:54 9.72153 -84.90994 3722 ft 88 kts 79°
2026-05-06 19:54 9.72241 -84.90331 3850 ft 94 kts 83°
2026-05-06 19:54 9.72366 -84.89712 4049 ft 95 kts 71°
2026-05-06 19:55 9.72514 -84.89059 4273 ft 89 kts 82°
2026-05-06 19:55 9.72597 -84.88416 4406 ft 97 kts 82°
2026-05-06 19:55 9.72624 -84.87765 4666 ft 90 kts 88°
2026-05-06 19:55 9.72663 -84.87111 4821 ft 94 kts 86°
2026-05-06 19:56 9.72694 -84.86473 5043 ft 92 kts 84°
2026-05-06 19:56 9.72737 -84.85810 5237 ft 92 kts 86°
2026-05-06 19:56 9.72798 -84.85174 5428 ft 93 kts 85°
2026-05-06 19:56 9.72843 -84.84511 5583 ft 100 kts 87°
2026-05-06 19:57 9.72880 -84.83764 5636 ft 109 kts 89°
2026-05-06 19:57 9.72743 -84.82973 5642 ft 121 kts 105°
2026-05-06 19:57 9.72534 -84.82129 5631 ft 128 kts 99°
2026-05-06 19:57 9.72431 -84.81200 5534 ft 137 kts 93°
2026-05-06 19:58 9.72442 -84.80224 5473 ft 138 kts 89°
2026-05-06 19:58 9.72516 -84.79290 5647 ft 124 kts 83°
2026-05-06 19:58 9.72654 -84.78381 5572 ft 134 kts 83°
2026-05-06 19:58 9.72749 -84.77517 5875 ft 112 kts 83°
2026-05-06 19:59 9.72911 -84.76684 5650 ft 138 kts 78°
2026-05-06 19:59 9.73107 -84.75719 5584 ft 140 kts 81°
2026-05-06 19:59 9.73232 -84.74760 5624 ft 135 kts 83°
2026-05-06 19:59 9.73331 -84.73819 5601 ft 137 kts 86°
2026-05-06 20:00 9.73403 -84.72850 5585 ft 137 kts 85°
2026-05-06 20:00 9.73482 -84.71889 5572 ft 136 kts 86°
2026-05-06 20:00 9.73534 -84.70923 5530 ft 138 kts 87°
2026-05-06 20:00 9.73613 -84.69957 5517 ft 137 kts 84°
2026-05-06 20:01 9.73718 -84.69014 5556 ft 134 kts 85°
2026-05-06 20:01 9.73825 -84.68067 5530 ft 136 kts 82°
2026-05-06 20:01 9.73942 -84.67115 5553 ft 135 kts 85°
2026-05-06 20:01 9.74000 -84.66159 5493 ft 139 kts 88°
2026-05-06 20:02 9.74065 -84.65166 5423 ft 142 kts 87°
2026-05-06 20:02 9.74148 -84.64191 5454 ft 137 kts 83°
2026-05-06 20:02 9.74302 -84.63229 5390 ft 140 kts 82°
2026-05-06 20:02 9.74353 -84.62266 5446 ft 133 kts 96°
2026-05-06 20:03 9.74070 -84.61366 5458 ft 133 kts 117°
2026-05-06 20:03 9.73560 -84.60633 5589 ft 127 kts 131°
2026-05-06 20:03 9.72944 -84.60006 5590 ft 130 kts 134°
2026-05-06 20:03 9.72354 -84.59314 5636 ft 131 kts 123°
2026-05-06 20:04 9.71882 -84.58483 5544 ft 138 kts 118°
2026-05-06 20:04 9.71420 -84.57664 5634 ft 132 kts 119°
2026-05-06 20:04 9.70939 -84.56855 5572 ft 136 kts 122°
2026-05-06 20:04 9.70416 -84.56061 5596 ft 133 kts 123°
2026-05-06 20:05 9.69913 -84.55286 5585 ft 130 kts 123°
2026-05-06 20:05 9.69427 -84.54488 5451 ft 132 kts 122°
2026-05-06 20:05 9.68928 -84.53734 5437 ft 127 kts 125°
2026-05-06 20:05 9.68403 -84.53026 5400 ft 125 kts 133°
2026-05-06 20:06 9.67766 -84.52436 5365 ft 124 kts 139°
2026-05-06 20:06 9.67137 -84.51889 5416 ft 115 kts 137°
2026-05-06 20:06 9.66974 -84.51216 5430 ft 113 kts 41°
2026-05-06 20:06 9.67490 -84.51542 5371 ft 118 kts 255°
2026-05-06 20:07 9.66893 -84.51630 5335 ft 111 kts 140°
2026-05-06 20:07 9.66226 -84.51478 5407 ft 108 kts 213°
2026-05-06 20:07 9.66379 -84.52063 5356 ft 112 kts
2026-05-06 20:07 9.66480 -84.51523 5403 ft 102 kts 137°
2026-05-06 20:08 9.65869 -84.51060 5323 ft 114 kts 144°
2026-05-06 20:08 9.65223 -84.50588 5351 ft 111 kts 135°
2026-05-06 20:08 9.65039 -84.49911 5473 ft 102 kts 70°
2026-05-06 20:08 9.65352 -84.49563 5507 ft 105 kts 27°
2026-05-06 20:09 9.66053 -84.49638 5537 ft 112 kts 327°
2026-05-06 20:09 9.66682 -84.50171 5468 ft 122 kts 317°
2026-05-06 20:09 9.67129 -84.50856 5475 ft 119 kts 257°
2026-05-06 20:09 9.66548 -84.50927 5454 ft 110 kts 106°
2026-05-06 20:10 9.67041 -84.50646 5455 ft 116 kts 320°
2026-05-06 20:10 9.67689 -84.50774 5469 ft 106 kts 73°
2026-05-06 20:10 9.67276 -84.50540 5512 ft 105 kts 239°
2026-05-06 20:10 9.67598 -84.51106 5558 ft 106 kts 328°
2026-05-06 20:11 9.68247 -84.51625 5383 ft 126 kts 321°
2026-05-06 20:11 9.68932 -84.52190 5341 ft 128 kts 323°
2026-05-06 20:11 9.69643 -84.52731 5295 ft 129 kts 321°
2026-05-06 20:11 9.70303 -84.53313 5350 ft 122 kts 316°
2026-05-06 20:12 9.70714 -84.54059 5301 ft 126 kts 282°
2026-05-06 20:12 9.70601 -84.54888 5430 ft 111 kts 238°
2026-05-06 20:12 9.70458 -84.55072 5446 ft 111 kts 222°
2026-05-06 20:12 9.70457 -84.55073 5445 ft 111 kts 222°
2026-05-06 20:13 9.69740 -84.55349 5475 ft 106 kts 177°
2026-05-06 20:13 9.69108 -84.55051 5493 ft 109 kts 131°
2026-05-06 20:13 9.68719 -84.54384 5507 ft 111 kts 117°
2026-05-06 20:13 9.68410 -84.53677 5528 ft 110 kts 110°
2026-05-06 20:14 9.68163 -84.52938 5528 ft 109 kts 109°
2026-05-06 20:14 9.67922 -84.52240 5544 ft 101 kts 111°
2026-05-06 20:14 9.67683 -84.51631 5582 ft 81 kts 112°
2026-05-06 20:14 9.67513 -84.51157 5381 ft 73 kts 111°
2026-05-06 20:15 9.67361 -84.50756 5059 ft 96 kts 111°
2026-05-06 20:15 9.67126 -84.50083 5048 ft 110 kts 110°
2026-05-06 20:15 9.66860 -84.49359 5276 ft 105 kts 111°
2026-05-06 20:15 9.66418 -84.48734 5343 ft 116 kts 146°
2026-05-06 20:16 9.65646 -84.48696 5513 ft 117 kts 203°
2026-05-06 20:16 9.65204 -84.49363 5504 ft 124 kts 265°
2026-05-06 20:16 9.65514 -84.50168 5438 ft 128 kts 306°
2026-05-06 20:16 9.66092 -84.50866 5427 ft 127 kts 318°
2026-05-06 20:17 9.66723 -84.51461 5467 ft 121 kts 318°
2026-05-06 20:17 9.67303 -84.51977 5480 ft 93 kts 319°
2026-05-06 20:17 9.67745 -84.52364 5406 ft 80 kts 317°
2026-05-06 20:17 9.68167 -84.52760 5356 ft 86 kts 314°
2026-05-06 20:18 9.68600 -84.53181 5362 ft 84 kts 315°
2026-05-06 20:18 9.69002 -84.53573 5402 ft 81 kts 314°
2026-05-06 20:18 9.69390 -84.53984 5475 ft 82 kts 316°
2026-05-06 20:18 9.69803 -84.54382 5512 ft 82 kts 315°
2026-05-06 20:19 9.70224 -84.54784 5506 ft 84 kts 316°
2026-05-06 20:19 9.70659 -84.55236 5488 ft 100 kts 311°
2026-05-06 20:19 9.70874 -84.55907 5574 ft 99 kts 261°
2026-05-06 20:19 9.70518 -84.56487 5625 ft 102 kts 215°
2026-05-06 20:20 9.69883 -84.56682 5728 ft 96 kts 173°
2026-05-06 20:20 9.69305 -84.56368 5802 ft 95 kts 125°
2026-05-06 20:20 9.69101 -84.55764 5912 ft 93 kts 90°
2026-05-06 20:20 9.69259 -84.55124 5998 ft 93 kts 66°
2026-05-06 20:21 9.69693 -84.54628 6069 ft 97 kts 44°
2026-05-06 20:21 9.69887 -84.53998 6108 ft 99 kts 104°
2026-05-06 20:21 9.69470 -84.53440 6133 ft 105 kts 132°
2026-05-06 20:21 9.69042 -84.52862 6196 ft 96 kts 124°
2026-05-06 20:22 9.68691 -84.52371 6197 ft 81 kts 125°
2026-05-06 20:22 9.68370 -84.51918 6314 ft 69 kts 120°
2026-05-06 20:22 9.68098 -84.51527 6450 ft 68 kts 121°
2026-05-06 20:22 9.67841 -84.51160 6620 ft 59 kts 121°
2026-05-06 20:23 9.67586 -84.50827 6713 ft 60 kts 125°
2026-05-06 20:23 9.67326 -84.50476 6714 ft 77 kts 120°
2026-05-06 20:23 9.66973 -84.49908 6610 ft 102 kts 123°
2026-05-06 20:23 9.66509 -84.49286 6479 ft 120 kts 125°
2026-05-06 20:24 9.66400 -84.48527 6541 ft 114 kts 61°
2026-05-06 20:24 9.67138 -84.48169 6467 ft 125 kts 14°
2026-05-06 20:24 9.67872 -84.47776 6493 ft 119 kts 46°
2026-05-06 20:24 9.68506 -84.47175 6429 ft 123 kts 42°
2026-05-06 20:25 9.69096 -84.46658 6584 ft 109 kts 42°
2026-05-06 20:25 9.69756 -84.46113 6417 ft 126 kts 40°
2026-05-06 20:25 9.70395 -84.45607 6571 ft 113 kts 38°
2026-05-06 20:25 9.71156 -84.45224 6407 ft 128 kts 26°
2026-05-06 20:26 9.71919 -84.44899 6517 ft 115 kts 23°
2026-05-06 20:26 9.72707 -84.44638 6429 ft 124 kts 18°
2026-05-06 20:26 9.73484 -84.44327 6482 ft 117 kts 27°
2026-05-06 20:26 9.74262 -84.43958 6400 ft 132 kts 25°
2026-05-06 20:27 9.75125 -84.43625 6467 ft 131 kts 21°
2026-05-06 20:27 9.76036 -84.43320 6302 ft 146 kts 19°
2026-05-06 20:27 9.76993 -84.43012 6286 ft 143 kts 20°
2026-05-06 20:27 9.77920 -84.42657 6319 ft 140 kts 24°
2026-05-06 20:28 9.78826 -84.42276 6200 ft 149 kts 22°
2026-05-06 20:28 9.79808 -84.41909 6201 ft 141 kts 21°
2026-05-06 20:28 9.80734 -84.41557 5970 ft 156 kts 22°
2026-05-06 20:28 9.81770 -84.41118 5675 ft 162 kts 25°
2026-05-06 20:29 9.82759 -84.40623 5589 ft 155 kts 28°
2026-05-06 20:29 9.83702 -84.40086 5385 ft 158 kts 32°
2026-05-06 20:29 9.84637 -84.39558 5355 ft 149 kts 27°
2026-05-06 20:29 9.85588 -84.39133 5228 ft 152 kts 21°
2026-05-06 20:30 9.86577 -84.38736 5098 ft 152 kts 23°
2026-05-06 20:30 9.88329 -84.37925 5394 ft 121 kts 25°
2026-05-06 20:30 9.89065 -84.37426 5393 ft 126 kts 43°
2026-05-06 20:31 9.89573 -84.36792 5608 ft 117 kts 56°
2026-05-06 20:31 9.90070 -84.36073 5634 ft 123 kts 54°
2026-05-06 20:31 9.90580 -84.35416 5794 ft 120 kts 49°
2026-05-06 20:31 9.91128 -84.34757 5863 ft 122 kts 51°
2026-05-06 20:32 9.91652 -84.34075 5979 ft 119 kts 52°
2026-05-06 20:32 9.92182 -84.33445 6093 ft 119 kts 47°
2026-05-06 20:32 9.92758 -84.32826 6178 ft 119 kts 45°
2026-05-06 20:32 9.93396 -84.32295 6274 ft 120 kts 33°
2026-05-06 20:33 9.94102 -84.31826 6375 ft 120 kts 36°
2026-05-06 20:33 9.94748 -84.31304 6503 ft 119 kts 42°
2026-05-06 20:33 9.95373 -84.30731 6533 ft 125 kts 44°
2026-05-06 20:33 9.96007 -84.30064 6461 ft 135 kts 47°
2026-05-06 20:34 9.96676 -84.29331 6204 ft 149 kts 49°
2026-05-06 20:34 9.97286 -84.28483 6055 ft 151 kts 63°
2026-05-06 20:34 9.97574 -84.27476 5932 ft 151 kts 83°
2026-05-06 20:34 9.97528 -84.26448 5832 ft 139 kts 97°
2026-05-06 20:35 9.97403 -84.25531 5688 ft 124 kts 95°
2026-05-06 20:35 9.97308 -84.24679 5480 ft 121 kts 94°
2026-05-06 20:35 9.97207 -84.23835 5253 ft 121 kts 101°
2026-05-06 20:35 9.97004 -84.22993 5059 ft 123 kts 97°
2026-05-06 20:36 9.96903 -84.22147 4969 ft 118 kts 98°
2026-05-06 20:36 9.96776 -84.21305 4782 ft 122 kts 94°
2026-05-06 20:36 9.96735 -84.20953 4737 ft 116 kts 96°
2026-05-06 20:37 9.96728 -84.20900 4729 ft 115 kts 97°
2026-05-06 20:37 9.96669 -84.20532 4585 ft 114 kts 99°
2026-05-06 20:37 9.96474 -84.19726 4270 ft 117 kts 104°
2026-05-06 20:37 9.96234 -84.18989 4015 ft 113 kts 107°
2026-05-06 20:38 9.96054 -84.18287 4038 ft 87 kts 94°
2026-05-06 20:38 9.96019 -84.17682 3899 ft 89 kts 86°
2026-05-06 20:38 9.96007 -84.17047 3970 ft 89 kts 90°
2026-05-06 20:38 9.95940 -84.16474 3934 ft 80 kts 91°
2026-05-06 20:39 9.95867 -84.15885 3856 ft 81 kts 94°
2026-05-06 20:39 9.95824 -84.15343 3706 ft 74 kts 88°
2026-05-06 20:39 9.95781 -84.14824 3382 ft 73 kts 96°
2026-05-06 20:39 9.95746 -84.14361 3245 ft 52 kts 93°
2026-05-06 20:40 9.95765 -84.14089 3250 ft 29 kts 86°
2026-05-06 20:40 9.95763 -84.13922 3253 ft 20 kts 95°
2026-05-06 20:40 9.95783 -84.13896 3253 ft 7 kts 188°
2026-05-06 20:40 9.95781 -84.13896 3253 ft 0 kts 185°